[Date Prev][Date Next][Thread Prev][Thread Next] - [Date Index][Thread Index][Author Index]
2 Line ISS Keps 4-12
- Subject: [sarex] 2 Line ISS Keps 4-12
- From: "Dave Larsen PhD" <doc@xxxxxxxxxxx>
- Date: Tue, 12 Apr 2005 05:40:04 -0700
ISS
1 25544U 98067A 05102.31808009 .00017207 00000-0 13884-3 0 2253
2 25544 051.6456 238.0598 0006529 003.2523 080.4767 15.70973551365325
----
Via the sarex mailing list at AMSAT.ORG courtesy of AMSAT-NA.
To unsubscribe, send "unsubscribe sarex" to Majordomo@amsat.org
AMSAT Home